Powrót do katalogu

SL-16 DEB

AktywnyLEO
NORAD 29098·DEBRIS·🇷🇺 Russia

Wystrzelony Mar 26, 1993 z Baikonur Cosmodrome

Loading…

Następne Przeloty (najbliższe 24 godziny)

TLE

ŚwieżeSource: Space-Track

Epoka: Sep 14, 2026, 14:08 UTC

1 29098U 93016AM  26257.58922516  .00000250  00000-0  14135-3 0  9991
2 29098  70.9256 336.7379 0079739  61.7894   4.1605 14.17872933683465

Śledź SL-16 DEB w czasie rzeczywistym z AllMySat

Download on the App Store